Date String (YYYY-MM-DD hh:mm:ss) UTC,Instrument flags,Ambient pressure (hPa),Sample flow (lpm),Bypass flow (lpm),Sample temperature (°C),Ambient temperature (°C),ASC tube jacket temperature (°C),LED temperature (°C),Box temperature (°C),Sample RH (%),Span deviation,Mass concentration (μg/m³),Mass concentration (μg/m³),Mass concentration (μg/m³)
DateTimeUTC,F1_M11,P_M11,Q1_M11,Q2_M11,T1_M11,T2_M11,T3_M11,T4_M11,T5_M11,U1_M11,ZSPAN_M11,X0_M11,X2_M11,X1_M11
2021-12-15 18:00:00,,0800.9,4.99,0.00,22.4,21.2,00.0,31.5,23.9,09.2,0000.0,0079.84,0006.16,0000.98
2021-12-15 18:01:00,,0801.2,5.00,0.00,22.4,21.1,00.0,31.5,23.9,09.3,0000.0,0079.30,0006.25,0000.99
2021-12-15 18:02:00,,0800.9,5.01,0.00,22.3,20.9,00.0,31.4,23.8,09.4,0000.0,0080.03,0006.27,0000.99
2021-12-15 18:03:00,,0800.9,4.99,0.00,22.2,20.8,00.0,31.4,23.7,09.4,0000.0,0089.72,0006.69,0001.02
2021-12-15 18:04:00,,0801.4,5.00,0.00,22.2,21.0,00.0,31.4,23.7,09.6,0000.0,0085.41,0006.70,0001.02
2021-12-15 18:05:00,,0801.4,5.01,0.00,22.3,22.0,00.0,31.4,24.1,09.8,0000.0,0060.86,0005.80,0000.91
2021-12-15 18:06:00,,0801.1,4.99,0.00,22.5,22.9,00.0,31.5,24.4,09.9,0000.0,0061.53,0005.58,0000.86
2021-12-15 18:07:00,,0801.6,5.01,0.00,22.6,22.9,00.0,31.5,24.5,09.7,0000.0,0062.07,0005.59,0000.90
2021-12-15 18:08:00,,0801.7,5.00,0.00,22.6,22.6,00.0,31.5,24.4,09.8,0000.0,0061.95,0005.64,0000.92
2021-12-15 18:09:00,,0801.7,4.99,0.00,22.6,22.2,00.0,31.5,24.3,09.9,0000.0,0057.01,0005.51,0000.90
2021-12-15 18:10:00,,0801.4,5.00,0.00,22.5,21.9,00.0,31.5,24.1,09.8,0000.0,0057.18,0005.51,0000.90
2021-12-15 18:11:00,,0801.7,5.01,0.00,22.4,21.6,00.0,31.5,24.0,09.8,0000.0,0057.56,0005.43,0000.87
2021-12-15 18:12:00,,0802.0,5.01,0.00,22.4,21.4,00.0,31.4,24.0,09.9,0000.0,0054.50,0005.30,0000.84
2021-12-15 18:13:00,,0801.7,4.99,0.00,22.4,21.2,00.0,31.4,23.9,09.6,0000.0,0051.66,0005.23,0000.84
2021-12-15 18:14:00,,0801.8,5.00,0.00,22.3,21.0,00.0,31.4,23.8,09.3,0000.0,0041.99,0004.83,0000.79
2021-12-15 18:15:00,,0801.3,5.01,0.00,22.2,20.9,00.0,31.4,23.7,09.1,0000.0,0041.47,0004.72,0000.76
2021-12-15 18:16:00,,0801.7,4.99,0.00,22.2,20.7,00.0,31.3,23.7,09.0,0000.0,0047.60,0004.95,0000.78
2021-12-15 18:17:00,,0801.7,4.99,0.00,22.1,20.8,00.0,31.3,23.6,08.9,0000.0,0047.82,0004.99,0000.79
2021-12-15 18:18:00,,0801.6,5.02,0.00,22.2,21.6,00.0,31.3,23.9,08.8,0000.0,0043.19,0004.95,0000.78
2021-12-15 18:19:00,,0802.0,5.00,0.00,22.3,22.5,00.0,31.4,24.2,08.9,0000.0,0042.42,0004.90,0000.76
2021-12-15 18:20:00,,0801.5,5.00,0.00,22.5,23.3,00.0,31.4,24.5,08.7,0000.0,0047.78,0005.06,0000.79
2021-12-15 18:21:00,,0802.1,5.00,0.00,22.6,23.1,00.0,31.4,24.6,08.7,0000.0,0093.07,0005.98,0000.91
2021-12-15 18:22:00,,0802.2,5.01,0.00,22.6,22.7,00.0,31.4,24.4,08.8,0000.0,0116.36,0006.39,0000.97
2021-12-15 18:23:00,,0802.4,5.00,0.00,22.5,22.3,00.0,31.4,24.3,08.9,0000.0,0115.79,0006.38,0000.96
2021-12-15 18:24:00,,0802.1,5.01,0.00,22.5,21.9,00.0,31.4,24.1,09.1,0000.0,0117.37,0006.44,0000.96
2021-12-15 18:25:00,,0801.9,4.98,0.00,22.4,21.6,00.0,31.4,24.0,09.3,0000.0,0126.11,0006.82,0001.01
2021-12-15 18:26:00,,0802.1,4.99,0.00,22.3,21.3,00.0,31.4,23.9,09.4,0000.0,0138.11,0007.39,0001.14
2021-12-15 18:27:00,,0802.5,5.00,0.00,22.3,21.1,00.0,31.4,23.8,09.5,0000.0,0130.27,0007.07,0001.13
2021-12-15 18:28:00,,0801.9,5.00,0.00,22.3,21.0,00.0,31.3,23.8,09.7,0000.0,0126.57,0006.97,0001.11
2021-12-15 18:29:00,,0802.1,4.99,0.00,22.2,20.9,00.0,31.3,23.7,10.0,0000.0,0128.11,0007.20,0001.15
2021-12-15 18:30:00,,0802.3,5.02,0.00,22.1,20.8,00.0,31.3,23.6,10.1,0000.0,0127.91,0007.43,0001.19
2021-12-15 18:31:00,,0802.0,5.00,0.00,22.1,21.3,00.0,31.3,23.8,10.3,0000.0,0124.48,0007.46,0001.19
2021-12-15 18:32:00,,0802.4,5.01,0.00,22.3,22.3,00.0,31.3,24.1,10.1,0000.0,0089.45,0006.91,0001.12
2021-12-15 18:33:00,,0802.4,5.01,0.00,22.4,23.2,00.0,31.4,24.5,10.0,0000.0,0059.70,0006.49,0001.08
2021-12-15 18:34:00,,0802.4,4.99,0.00,22.6,23.4,00.0,31.4,24.6,10.1,0000.0,0059.71,0006.62,0001.14
2021-12-15 18:35:00,,0802.3,5.00,0.00,22.6,22.9,00.0,31.4,24.5,10.1,0000.0,0060.50,0006.58,0001.16
2021-12-15 18:36:00,,0802.7,4.99,0.00,22.5,22.4,00.0,31.4,24.3,10.2,0000.0,0052.96,0006.38,0001.15
2021-12-15 18:37:00,,0802.7,5.01,0.00,22.5,22.1,00.0,31.4,24.1,10.4,0000.0,0041.86,0005.98,0001.08
2021-12-15 18:38:00,,0802.6,4.98,0.00,22.4,21.7,00.0,31.4,24.0,10.5,0000.0,0039.70,0005.93,0001.08
2021-12-15 18:39:00,,0802.8,5.01,0.00,22.4,21.4,00.0,31.4,23.9,10.6,0000.0,0039.95,0005.90,0001.09
2021-12-15 18:40:00,,0802.6,4.99,0.00,22.3,21.2,00.0,31.4,23.8,10.6,0000.0,0037.76,0005.51,0001.01
2021-12-15 18:41:00,,0802.5,5.00,0.00,22.2,21.0,00.0,31.4,23.8,10.4,0000.0,0038.11,0005.29,0000.99
2021-12-15 18:42:00,,0802.7,5.01,0.00,22.2,20.9,00.0,31.3,23.7,10.5,0000.0,0041.47,0005.30,0000.99
2021-12-15 18:43:00,,0802.9,4.98,0.00,22.1,20.8,00.0,31.3,23.6,10.5,0000.0,0036.78,0005.11,0000.97
2021-12-15 18:44:00,,0803.0,4.99,0.00,22.1,20.8,00.0,31.3,23.6,10.4,0000.0,0035.51,0005.06,0000.94
2021-12-15 18:45:00,,0802.9,5.00,0.00,22.1,21.5,00.0,31.3,23.8,10.3,0000.0,0035.39,0004.88,0000.88
2021-12-15 18:46:00,,0803.0,5.00,0.00,22.3,22.5,00.0,31.3,24.2,10.0,0000.0,0033.24,0004.80,0000.86
2021-12-15 18:47:00,,0802.9,4.99,0.00,22.4,23.1,00.0,31.4,24.4,09.9,0000.0,0035.20,0004.80,0000.85
2021-12-15 18:48:00,,0802.6,5.00,0.00,22.5,22.9,00.0,31.4,24.4,09.8,0000.0,0038.82,0004.83,0000.85
2021-12-15 18:49:00,,0802.7,5.00,0.00,22.5,22.4,00.0,31.4,24.3,09.8,0000.0,0041.54,0004.95,0000.84
2021-12-15 18:50:00,,0803.0,5.00,0.00,22.4,22.1,00.0,31.4,24.1,09.8,0000.0,0043.66,0005.01,0000.87
2021-12-15 18:51:00,,0803.1,5.01,0.00,22.4,21.7,00.0,31.4,24.0,09.7,0000.0,0044.54,0005.21,0000.90
2021-12-15 18:52:00,,0803.4,5.00,0.00,22.3,21.5,00.0,31.3,23.9,09.6,0000.0,0043.38,0005.30,0000.91
2021-12-15 18:53:00,,0803.3,5.00,0.00,22.3,21.2,00.0,31.3,23.8,09.6,0000.0,0039.68,0005.21,0000.90
2021-12-15 18:54:00,,0803.5,5.00,0.00,22.2,21.1,00.0,31.3,23.7,09.1,0000.0,0041.76,0005.25,0000.88
2021-12-15 18:55:00,,0803.4,4.99,0.00,22.2,20.9,00.0,31.3,23.7,09.0,0000.0,0043.11,0005.16,0000.87
2021-12-15 18:56:00,,0803.3,4.99,0.00,22.1,20.8,00.0,31.3,23.6,09.0,0000.0,0042.62,0005.10,0000.88
2021-12-15 18:57:00,,0803.2,5.01,0.00,22.1,20.7,00.0,31.2,23.6,08.9,0000.0,0042.64,0005.15,0000.88
2021-12-15 18:58:00,,0803.2,5.00,0.00,22.1,21.1,00.0,31.2,23.6,08.8,0000.0,0040.81,0005.19,0000.89
2021-12-15 18:59:00,,0803.5,5.01,0.00,22.2,22.2,00.0,31.2,24.0,08.8,0000.0,0036.01,0004.94,0000.86
